Showing default

GONETS D1 2, 23788

Orbit data source: Space-Track

GONETS D1 2, 23788 is a payload satellite owned by Gonets (CIS) in LEO that was launched on Mon, 19 Feb 1996 UTC via a TSIKLON-3 launch vehicle from the Plesetsk Missile And Space Complex (PKMTR). Payloads include a variety of satellites, spacecraft, and rockets equipped with specific instruments for various scientific and technological missions. These include communications satellites like Starlink; space stations such as the ISS; scientific satellites like the Hubble; Earth observation satellites from companies like Planet Labs, Umbra, and HawkEye 360; GPS; miniature CubeSats for education and research; and military/defense satellites.

Loading next visibility...
GONETS D1 2 details
Identifier
23788, 1996-009B
Orbit
LEO
Last TLE update15 hours ago
Origin
Flag of CISGonets (CIS)
ManufacturerNPO PM
MissionNon-operational Civil Communications
Bus & MotorSTRELA-3, Unknown motor
Mass225 kg wet, 225 kg dry
Launch date (UTC)
1996-02-19 (29 years ago)
Launch vehicle
TSIKLON-3
Launch site
Plesetsk Missile And Space Complex (PKMTR)
Object type
Payload
Rocket body
Debris
Shape & HBRCyl + 1 Ant, 7 m
Radar Cross Section1.798 m², Medium (>0.1 m² and < 1m²)

Expand to show TLE details & history

TLE from 15 hours ago
0 GONETS D1 2
1 23788U 96009B   25046.87323192  .00000020  00000-0  51594-4 0  9994
2 23788  82.5653 255.6492 0007807  91.7960 268.4026 12.63199614336693
Epoch: 2025-02-15T20:57Z
Definitive object data (Epoch: 2025-02-15T20:57:27.237Z)
Latitude-0.00002°
Longitude155.17131°
Altitude1,412.671 km
Speed7.154 km/s
True Right ascension17h 02m 35s
True Declination0° 00' 00"
Sunlit
Object was in daylight at TLE epoch
Visualization TLE readout
Latitude-81.43894°
Longitude95.17192°
Altitude1,444.111 km
Speed7.137 km/s
Apparent Right ascension02h 54m 50s
Apparent Declination-71° 57' 45"
Sunlit
Object is in daylight
Visualization observer readout
Local Sidereal Time14:29:05
Azimuth183.735° SSW
Elevation-57.792°
Doppler factor1
Orbital elements
Apogee altitude1,413.164 km
Perigee altitude1,401.008 km
Semi-major axis7,785.223 km
Eccentricity0.0007807
Inclination82.5653°
RAAN255.6492°
Arg. of periapsis91.796°
True anomaly268.31318°
Mean anomaly268.4026°
Eccentric anomaly268.35789°
Mean motion3.15963 °/min
BSTAR0.000051594
Orbital period113.94 mins
Loading maneuver chart data...
Loading historical data...
Loading historical data...
Loading historical data...
Loading historical data...
Loading historical data...
Loading historical data...
Loading historical data...

GONETS D1 2 Visibility forecast

Observer location: undefined°, undefined

Span
Click to sort rows by Start time (UTC) header in descending order
Start Az.
Max El. time (UTC)
Max El. Az.
Max El.
End time (UTC)
End Az.
15 mins2025-02-16 14:09:41.008Z171.099° S2025-02-16 14:16:41.008Z87.482° E42.686°2025-02-16 14:24:41.008Z13.001° NNE
11 mins2025-02-16 16:06:41.008Z245.601° WSW2025-02-16 16:11:41.008Z287.446° WNW22.712°2025-02-16 16:17:41.008Z339.578° N
12 mins2025-02-17 00:11:41.008Z20.928° NNE2025-02-17 00:16:41.008Z64.434° ENE24.016°2025-02-17 00:23:41.008Z122.659° SE
14 mins2025-02-17 02:05:41.008Z344.105° N2025-02-17 02:12:41.008Z262.823° W41.732°2025-02-17 02:19:41.008Z191.195° SSW
|